Home > Weather > Santa Ana > Past weeks

Flag for El Salvador Past Weather in Santa Ana, El Salvador — Yesterday and Last 2 Weeks

Now
84 °F

Passing clouds.


Feels Like: 88 °F
Forecast: 65 / 88 °F
Wind: 9 mph from North

Location: San Salvador / Ilopango

Current Time: Aug 25, 2016 at 12:41:39 PM

Latest Report: Aug 25, 2016 at 11:50 AM


Visibility: N/A

Pressure: 29.98 "Hg (27.86 "Hg at 650m altitude)

Humidity: 62%

Dew Point: 70 °F

Location of Santa AnaLocation

Past Weather in Santa Ana — Graph

°F

Santa Ana Temperature Yesterday

Maximum temperature yesterday: 90 °F (at 2:50 PM)
Minimum temperature yesterday: 70 °F (at 5:50 AM)
Average temperature yesterday: 80 °F

High & Low Weather Summary for the Past Weeks

 TemperatureHumidityPressure
High90 °F (Aug 10, 2:50 PM)100% (Aug 13, 5:50 AM)30.07 "Hg (Aug 13, 5:50 AM)
Low68 °F (Aug 11, 7:50 PM)24% (Aug 23, 9:50 PM)29.86 "Hg (Aug 15, 8:50 AM)
Average79 °F77%29.98 "Hg
* Reported Aug 10 10:50 AM — Aug 25 10:50 AM, Santa Ana, Weather by CustomWeather, © 2016

Note: Actual official high and low records may vary slightly from our data, if they occured in-between our weather recording intervals... More about our weather records

Advertising

Santa Ana Weather History for the Previous 24 Hours

Scroll right to see more
 ConditionsComfort  
Time TempWeatherWind HumidityBarometerVisibility
10:50 AM
Thu, Aug 25
84 °FPassing clouds.9 mph62%29.98 "HgN/A
9:50 AM81 °FSunny.9 mph70%29.98 "Hg10 mi
8:50 AM77 °FSunny.9 mph74%30.01 "Hg10 mi
7:50 AM73 °FSunny.7 mph94%30.01 "Hg10 mi
6:50 AM72 °FSunny.6 mph83%29.98 "Hg10 mi
5:50 AM70 °FSunny.6 mph88%29.98 "Hg10 mi
11:50 PM
Wed, Aug 24
73 °FClear.5 mph78%30.01 "Hg10 mi
10:50 PM73 °FPassing clouds.9 mph83%30.01 "HgN/A
9:50 PM75 °FClear.8 mph78%30.01 "Hg10 mi
8:50 PM75 °FPassing clouds.2 mph83%30.01 "HgN/A
7:50 PM75 °FPassing clouds.13 mph83%29.98 "HgN/A
6:50 PM75 °FThunderstorms. Passing clouds.7 mph83%29.98 "HgN/A
5:50 PM84 °FScattered clouds.3 mph62%29.92 "HgN/A
4:50 PM88 °FScattered clouds.7 mph52%29.92 "HgN/A
3:50 PM88 °FPassing clouds.8 mph52%29.92 "HgN/A
2:50 PM90 °FScattered clouds.7 mph52%29.98 "HgN/A
1:50 PM88 °FPassing clouds.8 mph52%29.98 "HgN/A
12:50 PM86 °FPassing clouds.10 mph52%30.01 "HgN/A
Weather by CustomWeather, © 2016

See weather overviewHow to use our weather pages